Lid_Strength_Index
2 2 2 2 2 2 2 2 2 2 2 2 3 3 2 2 2 2 1 1 1 1 0 -0 -0 -0 8 12 11 8 1 4 8 8 10 10 11 12 13 13 12 13 12 11 11 11 12
3 3 3 3 3 3 2 3 3 3 2 2 2 2 2 2 2 2 1 1 1 1 1 0 -0 1 10 13 8 8 9 9 9 10 10 11 11 10 12 12 13 12 12 12 12 11 12
3 3 3 3 3 3 3 3 3 3 3 2 2 2 2 2 2 2 2 2 2 2 1 1 1 5 11 12 9 9 9 9 10 10 11 9 9 10 10 12 10 10 12 13 12 13 14
3 3 3 3 3 3 3 3 3 3 3 2 2 2 2 2 2 2 2 2 2 2 1 1 1 9 12 8 8 8 9 9 8 9 9 8 8 9 10 10 11 14 15 17 13 13 13
3 3 3 3 3 3 3 3 3 3 3 3 2 2 2 2 2 2 3 2 2 2 1 2 8 10 13 6 9 8 9 9 8 8 8 6 8 11 12 15 16 16 18 17 15 13 14
4 4 4 4 4 4 3 3 3 3 3 3 3 2 2 3 3 3 3 3 3 5 7 7 8 12 10 11 9 8 8 7 9 9 10 11 13 14 15 16 21 18 18 19 18 15 14
4 4 4 4 4 4 4 4 4 4 4 3 3 3 3 3 3 3 6 7 9 11 10 12 12 11 11 9 8 8 8 8 10 11 15 13 15 18 17 15 15 16 17 18 17 14 14
4 4 4 4 4 4 4 4 4 4 4 4 4 3 3 3 3 4 7 9 8 8 14 11 10 10 9 9 11 9 9 11 12 15 14 16 18 15 14 15 16 16 18 19 16 13 14
5 5 4 4 5 4 4 4 4 4 4 4 4 3 3 3 4 6 7 7 5 6 13 11 10 10 10 9 12 11 10 12 13 15 16 17 16 13 15 16 17 17 17 17 17 14 14
5 5 5 5 5 5 4 4 4 4 4 4 4 4 4 4 7 8 8 7 5 6 16 13 11 10 9 10 12 10 10 12 13 16 15 16 14 14 16 17 16 19 14 14 14 16 19
6 5 5 5 5 5 5 5 4 4 4 4 4 4 4 5 9 10 8 7 5 7 20 12 12 8 9 12 11 12 10 11 15 15 15 17 16 16 17 16 14 16 12 13 13 15 15
5 6 6 6 5 5 5 5 5 4 4 4 4 4 4 6 9 8 7 6 8 15 20 14 11 12 13 12 12 13 13 12 12 15 15 15 13 14 15 13 12 12 12 12 12 14 18
5 5 6 6 5 5 5 5 5 5 4 4 4 4 6 6 10 7 6 9 16 21 13 15 14 13 14 15 14 14 16 17 19 20 20 17 16 14 12 14 12 12 14 17 19 19 19
6 6 6 6 6 5 5 5 5 5 5 4 4 5 7 6 7 6 10 14 22 15 16 13 13 13 16 15 15 16 17 19 17 18 21 22 21 15 12 13 15 14 15 17 22 21 19
6 6 6 6 6 6 5 5 5 5 5 4 5 8 10 7 6 8 13 21 19 16 14 14 14 16 17 15 16 16 18 18 17 17 20 21 20 13 11 11 11 14 16 12 16 15 19
6 6 6 6 6 6 6 5 5 5 4 4 9 9 10 8 8 11 15 16 16 13 13 13 17 15 18 18 17 17 18 16 16 15 15 17 20 14 11 10 9 12 10 15 15 21 23
7 6 6 6 6 6 6 5 5 5 5 5 9 12 9 8 10 13 19 16 14 12 12 14 16 17 17 18 17 18 18 16 15 15 15 16 16 15 12 15 15 15 15 14 14 15 20
7 7 6 6 6 6 6 5 5 5 5 7 12 15 9 9 14 17 18 14 11 13 12 13 14 15 17 17 18 17 18 17 14 15 17 15 15 17 16 11 10 12 14 12 18 19 17
7 7 7 6 6 6 6 6 6 5 5 10 13 14 9 10 19 20 15 13 13 13 14 14 15 15 15 17 19 17 16 14 14 15 16 14 17 21 16 14 12 15 13 12 12 18 24
8 7 7 7 6 6 6 6 6 5 5 9 13 16 13 13 15 15 15 15 15 12 14 14 15 15 17 17 17 17 16 14 12 14 9 12 16 19 21 18 14 19 14 13 17 19 23
8 7 7 7 6 6 6 6 6 6 5 9 14 16 14 19 17 15 15 14 16 16 14 14 16 16 17 19 18 18 17 15 13 12 13 14 17 14 13 11 12 18 14 14 20 23 22
8 7 7 7 6 6 6 6 6 6 6 11 14 14 14 15 14 16 15 16 16 16 15 16 17 17 17 18 18 19 17 17 16 15 15 15 17 14 14 11 12 14 15 14 13 21 20
8 8 7 7 7 7 6 6 6 5 8 12 12 11 14 16 17 17 17 15 15 15 14 14 16 17 18 17 16 15 15 15 14 16 15 16 16 16 17 14 13 18 15 15 15 15 19
8 8 8 7 7 7 7 6 6 5 8 11 13 12 16 18 17 16 14 14 15 15 16 15 16 17 15 14 14 15 15 15 15 14 13 16 16 15 17 15 26 16 11 12 17 12 13
8 8 8 7 7 7 7 6 6 5 6 12 13 12 17 19 16 15 14 15 15 15 16 16 15 14 14 16 18 19 18 18 16 15 16 14 15 18 23 20 16 14 11 12 14 15 11
8 8 8 8 7 7 7 7 6 6 5 11 13 12 15 17 17 13 15 16 18 19 17 16 14 14 16 18 19 26 25 19 19 18 15 14 14 18 19 22 27 15 11 10 10 19 10
8 8 8 8 8 7 7 7 6 6 6 11 12 13 15 19 16 15 17 17 17 18 20 17 16 17 17 19 27 25 21 18 21 20 19 18 18 21 20 27 21 12 11 9 16 16 10
8 8 8 8 8 7 7 7 7 6 6 10 12 12 14 18 16 13 13 17 17 18 21 18 19 18 20 24 24 23 22 19 20 17 18 20 24 24 19 27 26 11 10 14 11 9 9
8 8 8 8 8 7 7 7 7 7 6 9 13 11 12 16 16 13 12 13 14 15 18 18 19 18 19 24 25 24 22 21 19 23 16 20 18 20 17 19 11 10 10 9 10 10 10